O'Neill, NE

4:49 PM CDT on July 24, 2017 (GMT -0500)
The O'Neill Municipal-Baker

Weather History for KONL - October, 2012

Change the Weather History Date:

Saturday, October 27, 2012

  Actual Average Record
Temperature  
Mean Temperature 32 °F -  
Max Temperature 42 °F 59 °F 85 °F (1983)
Min Temperature 23 °F 34 °F 12 °F (1997)
Degree Days  
Heating Degree Days 32    
Moisture  
Dew Point 28 °F    
Average Humidity 80    
Maximum Humidity 94    
Minimum Humidity 66    
Precipitation  
Precipitation 0.01 in - - ()
Sea Level Pressure  
Sea Level Pressure 30.23 in    
Wind  
Wind Speed 8 mph (SSE)    
Max Wind Speed 20 mph    
Max Gust Speed 23 mph    
Visibility 10 miles    
Events Rain    
Averages and records for this station are not official NWS values.
T = Trace of Precipitation, MM = Missing Value Source: NWS Daily Summary

Daily Weather History Graph

Daily Weather History Graph

Search for Another Location

Airport or City:

Trip Planner

Search our weather history database for the weather conditions in past years. The results will help you decide how hot, cold, wet, or windy it might be!

Date:

Astronomy

Oct. 27, 2012 Rise Set
Actual Time 8:02 AM CDT 6:33 PM CDT
Civil Twilight 7:33 AM CDT 7:02 PM CDT
Nautical Twilight 7:00 AM CDT 7:35 PM CDT
Astronomical Twilight 6:28 AM CDT 8:08 PM CDT
Moon 5:21 PM CDT (10/27) 5:57 AM CDT (10/27)
Length of Visible Light 11h 29m
Length of Day
10h 31m
Waxing Gibbous, 96% of the Moon is Illuminated
Oct 27
Waxing Gibbous
Oct 29
Full
Nov 6
Last Quarter
Nov 13
New
Nov 20
First Quarter

Hourly Weather History & Observations

Time (CDT) Temp. Windchill Dew Point Humidity Pressure Visibility Wind Dir Wind Speed Gust Speed Precip Events Conditions
12:15 AM 29.7 °F 23.7 °F 25.3 °F 84% 30.34 in 10.0 mi SSE 5.8 mph - N/A   Clear
12:35 AM 29.1 °F 24.1 °F 24.8 °F 84% 30.33 in 10.0 mi SE 4.6 mph - N/A   Clear
12:55 AM 28.9 °F 23.9 °F 24.8 °F 84% 30.33 in 10.0 mi SE 4.6 mph - N/A   Clear
1:15 AM 28.4 °F 23.3 °F 24.8 °F 86% 30.33 in 10.0 mi SSE 4.6 mph - N/A   Clear
1:35 AM 27.3 °F 20.9 °F 24.6 °F 90% 30.32 in 10.0 mi SSE 5.8 mph - N/A   Clear
1:55 AM 27.0 °F 20.5 °F 24.4 °F 90% 30.32 in 10.0 mi SSE 5.8 mph - N/A   Clear
2:15 AM 26.2 °F 19.6 °F 23.9 °F 91% 30.31 in 10.0 mi SSE 5.8 mph - N/A   Clear
2:35 AM 26.4 °F 19.8 °F 23.9 °F 90% 30.31 in 10.0 mi SSE 5.8 mph - N/A   Clear
2:55 AM 26.4 °F 19.8 °F 23.9 °F 90% 30.31 in 10.0 mi SSE 5.8 mph - N/A   Clear
3:15 AM 26.6 °F 20.0 °F 23.0 °F 86% 30.31 in 10.0 mi SSE 5.8 mph - N/A   Clear
3:35 AM 26.1 °F 19.4 °F 23.4 °F 90% 30.30 in 10.0 mi SSE 5.8 mph - N/A   Clear
3:55 AM 25.7 °F 19.0 °F 23.0 °F 89% 30.30 in 10.0 mi SSE 5.8 mph - N/A   Clear
4:15 AM 24.8 °F 19.1 °F 22.8 °F 92% 30.29 in 10.0 mi SSE 4.6 mph - N/A   Clear
4:35 AM 24.4 °F 18.6 °F 22.5 °F 92% 30.28 in 10.0 mi South 4.6 mph - N/A   Clear
4:55 AM 24.3 °F 17.3 °F 22.5 °F 93% 30.28 in 10.0 mi SSE 5.8 mph - N/A   Clear
5:15 AM 24.3 °F 17.3 °F 22.3 °F 92% 30.28 in 10.0 mi SSE 5.8 mph - N/A   Clear
5:35 AM 23.9 °F 16.8 °F 22.1 °F 93% 30.29 in 10.0 mi South 5.8 mph - N/A   Clear
5:55 AM 23.9 °F 16.8 °F 22.5 °F 94% 30.29 in 10.0 mi South 5.8 mph - N/A   Clear
6:15 AM 24.1 °F 18.2 °F 22.5 °F 94% 30.29 in 10.0 mi South 4.6 mph - N/A   Clear
6:55 AM 24.6 °F 17.7 °F 22.8 °F 93% 30.29 in 10.0 mi SSE 5.8 mph - N/A   Clear
7:15 AM 24.8 °F 17.9 °F 23.0 °F 93% 30.28 in 10.0 mi SSE 5.8 mph - N/A   Clear
7:35 AM 25.7 °F 19.0 °F 23.7 °F 92% 30.28 in 10.0 mi SSE 5.8 mph - N/A   Scattered Clouds
7:55 AM 27.0 °F 19.5 °F 24.8 °F 92% 30.27 in 10.0 mi South 6.9 mph - N/A   Scattered Clouds
8:15 AM 27.5 °F 21.1 °F 25.0 °F 90% 30.27 in 10.0 mi SSE 5.8 mph - N/A   Clear
8:35 AM 27.5 °F 22.2 °F 25.3 °F 92% 30.28 in 10.0 mi SSE 4.6 mph - N/A   Clear
8:55 AM 30.2 °F 23.4 °F 26.6 °F 86% 30.28 in 10.0 mi South 6.9 mph - N/A   Mostly Cloudy
9:15 AM 30.9 °F 23.5 °F 27.1 °F 86% 30.28 in 10.0 mi South 8.1 mph - N/A   Scattered Clouds
9:35 AM 31.3 °F 22.1 °F 27.3 °F 85% 30.27 in 10.0 mi South 11.5 mph - N/A   Clear
9:55 AM 32.0 °F 23.6 °F 27.9 °F 85% 30.27 in 10.0 mi South 10.4 mph 18.4 mph N/A   Clear
10:15 AM 32.0 °F 22.1 °F 28.4 °F 87% 30.26 in 10.0 mi South 13.8 mph 18.4 mph N/A   Clear
10:35 AM 33.1 °F 23.4 °F 28.4 °F 83% 30.27 in 10.0 mi SSW 13.8 mph - N/A   Mostly Cloudy
10:55 AM 33.4 °F 24.3 °F 28.2 °F 81% 30.26 in 10.0 mi South 12.7 mph - N/A   Overcast
11:15 AM 34.0 °F 24.6 °F 28.6 °F 81% 30.26 in 10.0 mi South 13.8 mph 19.6 mph N/A   Mostly Cloudy
11:35 AM 34.5 °F 26.2 °F 28.8 °F 79% 30.26 in 10.0 mi South 11.5 mph - N/A   Mostly Cloudy
11:55 AM 35.4 °F 25.3 °F 28.9 °F 77% 30.25 in 10.0 mi South 17.3 mph 20.7 mph N/A   Overcast
12:15 PM 36.0 °F 26.3 °F 29.1 °F 76% 30.25 in 10.0 mi SSW 16.1 mph 20.7 mph N/A   Overcast
12:35 PM 37.4 °F 27.2 °F 29.5 °F 73% 30.23 in 10.0 mi South 19.6 mph 23.0 mph N/A   Overcast
12:55 PM 38.3 °F 29.0 °F 29.5 °F 71% 30.22 in 10.0 mi South 17.3 mph - N/A   Overcast
1:15 PM 39.2 °F 30.5 °F 29.5 °F 68% 30.21 in 10.0 mi South 16.1 mph 23.0 mph N/A   Mostly Cloudy
1:35 PM 39.2 °F 30.2 °F 29.3 °F 68% 30.20 in 10.0 mi South 17.3 mph 21.9 mph N/A   Overcast
1:55 PM 39.4 °F 31.4 °F 29.7 °F 68% 30.19 in 10.0 mi South 13.8 mph 23.0 mph N/A   Mostly Cloudy
2:15 PM 39.4 °F 30.7 °F 29.5 °F 68% 30.18 in 10.0 mi South 16.1 mph - N/A   Overcast
2:35 PM 39.7 °F 31.9 °F 29.8 °F 68% 30.18 in 10.0 mi South 13.8 mph 20.7 mph N/A   Overcast
2:55 PM 39.9 °F 31.4 °F 29.7 °F 67% 30.16 in 10.0 mi South 16.1 mph 20.7 mph N/A   Overcast
3:15 PM 39.9 °F 31.4 °F 29.7 °F 67% 30.16 in 10.0 mi South 16.1 mph 21.9 mph N/A   Overcast
3:35 PM 38.8 °F 30.4 °F 31.3 °F 74% 30.16 in 10.0 mi South 15.0 mph - N/A Rain Light Rain
3:55 PM 38.3 °F 29.0 °F 32.0 °F 78% 30.15 in 10.0 mi South 17.3 mph 21.9 mph N/A Rain Light Rain
4:15 PM 39.0 °F 31.4 °F 32.4 °F 77% 30.15 in 10.0 mi South 12.7 mph - 0.01 in Rain Light Rain
4:35 PM 40.5 °F 33.6 °F 32.0 °F 72% 30.15 in 10.0 mi South 11.5 mph 17.3 mph 0.01 in   Overcast
4:55 PM 41.0 °F 35.2 °F 32.0 °F 70% 30.15 in 10.0 mi South 9.2 mph - 0.01 in   Overcast
5:15 PM 41.9 °F 35.4 °F 32.0 °F 68% 30.15 in 10.0 mi South 11.5 mph - N/A   Overcast
5:35 PM 41.9 °F 35.9 °F 31.8 °F 67% 30.15 in 10.0 mi South 10.4 mph - N/A   Overcast
5:55 PM 42.3 °F 36.8 °F 31.5 °F 66% 30.15 in 10.0 mi South 9.2 mph - N/A   Overcast
6:15 PM 42.1 °F 36.6 °F 31.6 °F 67% 30.15 in 10.0 mi South 9.2 mph - N/A   Overcast
6:35 PM 41.9 °F 38.2 °F 32.0 °F 68% 30.15 in 10.0 mi South 5.8 mph - N/A   Overcast
6:55 PM 41.2 °F 37.3 °F 32.0 °F 70% 30.16 in 10.0 mi SSE 5.8 mph - N/A   Overcast
7:15 PM 40.8 °F 36.2 °F 32.0 °F 71% 30.16 in 10.0 mi SSE 6.9 mph - N/A   Overcast
7:35 PM 40.8 °F 36.2 °F 31.6 °F 70% 30.17 in 10.0 mi SSE 6.9 mph - N/A   Overcast
7:55 PM 40.8 °F 36.2 °F 30.9 °F 68% 30.17 in 10.0 mi SE 6.9 mph - N/A   Overcast
8:15 PM 41.0 °F 35.8 °F 30.4 °F 66% 30.17 in 10.0 mi SE 8.1 mph - N/A   Overcast
8:35 PM 40.3 °F 35.5 °F 30.9 °F 69% 30.18 in 10.0 mi SE 6.9 mph - N/A   Overcast
8:55 PM 40.1 °F 33.6 °F 30.0 °F 67% 30.17 in 10.0 mi SSE 10.4 mph - N/A   Overcast
9:15 PM 39.2 °F 33.0 °F 30.2 °F 70% 30.17 in 10.0 mi SSE 9.2 mph - N/A   Overcast
9:35 PM 38.1 °F 32.3 °F 30.0 °F 73% 30.18 in 10.0 mi SSE 8.1 mph - N/A   Mostly Cloudy
9:55 PM 36.5 °F 30.3 °F 29.7 °F 76% 30.18 in 10.0 mi SSE 8.1 mph - N/A   Scattered Clouds
10:15 PM 34.9 °F 29.0 °F 29.3 °F 80% 30.18 in 10.0 mi SSE 6.9 mph - N/A   Clear
10:35 PM 34.2 °F 29.0 °F 29.1 °F 82% 30.18 in 10.0 mi SSE 5.8 mph - N/A   Scattered Clouds
10:55 PM 33.6 °F 28.4 °F 29.1 °F 84% 30.19 in 10.0 mi SE 5.8 mph - N/A   Scattered Clouds
11:15 PM 33.1 °F 26.9 °F 28.4 °F 83% 30.19 in 10.0 mi SSE 6.9 mph - N/A   Scattered Clouds
11:35 PM 32.2 °F 25.8 °F 28.2 °F 85% 30.19 in 10.0 mi SSE 6.9 mph - N/A   Clear
11:55 PM 32.0 °F 26.4 °F 28.0 °F 85% 30.19 in 10.0 mi SSE 5.8 mph - N/A   Clear